Voltar ao catálogo

STARLINK-37059

AtivoComunicaçõesVLEO
NORAD 68088·PAYLOAD·🇺🇸 United States

Lançado Mar 4, 2026 de Vandenberg Space Force Base

Loading…

Próximas Passagens (próximas 24 horas)

TLE

AtualizadoSource: CelesTrak SupGP

Época: Sep 14, 2026, 21:04 UTC

1 68088C 26042V   26257.87826389  .00028994  00000+0  85638-3 0  2578
2 68088  53.1599  16.1151 0001298  63.3643 349.6394 15.34385746    19

Acompanhe STARLINK-37059 em tempo real com AllMySat

Download on the App Store